FW2825 Weather Reports


Display with metric or nautical units.
time (UTC)temp
F
wind
direction
speed
MPH
gust
MPH
rain 1hr
in
rain 24hr
in
rain mn
in
humidity
%
barometer
mb
20210805014612 64 169 0.0 1.0 0.00 0.00 0.00 94 1021.5
20210805013118 64 169 0.0 0.0 0.00 0.00 0.00 94 1021.2
20210805011608 64 169 0.0 0.0 0.00 0.00 0.00 93 1021.1
20210805010138 65 169 0.0 0.0 0.00 0.00 0.00 92 1020.9
20210805004603 65 169 0.0 0.0 0.00 0.00 0.00 92 1020.8
20210805003104 66 169 0.0 0.0 0.00 0.00 0.00 91 1020.7
20210805001610 67 169 0.0 0.0 0.00 0.00 0.00 89 1020.6
20210805000047 67 169 0.0 0.0 0.00 0.00 0.00 88 1020.5
20210804234555 68 169 0.0 0.0 0.00 0.00 0.00 86 1020.6
20210804233050 68 169 0.0 0.0 0.00 0.00 0.00 86 1020.6
20210804231545 69 169 0.0 0.0 0.00 0.00 0.00 84 1020.4
20210804230047 70 169 0.0 0.0 0.00 0.00 0.00 83 1020.3
20210804224559 70 169 0.0 1.0 0.00 0.00 0.00 83 1020.4
20210804223046 70 169 0.0 0.0 0.00 0.00 0.00 79 1020.5
20210804221611 71 169 0.0 2.0 0.00 0.00 0.00 80 1020.6
20210804220039 71 169 0.0 3.0 0.00 0.00 0.00 81 1020.8
20210804214537 71 169 0.0 0.0 0.00 0.00 0.00 84 1020.8
20210804213120 71 169 0.0 0.0 0.00 0.00 0.00 82 1020.7
20210804211608 72 169 0.0 2.0 0.00 0.00 0.00 81 1020.6
20210804210051 72 169 1.0 5.0 0.00 0.00 0.00 77 1020.6
20210804204544 72 169 0.0 0.0 0.00 0.00 0.00 80 1020.6
20210804203039 72 169 0.0 0.0 0.00 0.00 0.00 79 1020.7
20210804201625 72 169 0.0 0.0 0.00 0.00 0.00 78 1020.8
20210804200125 73 169 0.0 2.0 0.00 0.00 0.00 77 1020.9
20210804194630 73 169 0.0 0.0 0.00 0.00 0.00 77 1021.0
20210804193047 73 169 0.0 0.0 0.00 0.00 0.00 73 1021.0
20210804191542 73 169 0.0 0.0 0.00 0.00 0.00 75 1021.1
20210804190048 74 169 0.0 0.0 0.00 0.00 0.00 73 1021.1
20210804184537 74 169 0.0 3.0 0.00 0.00 0.00 73 1021.1
20210804183026 75 169 0.0 3.0 0.00 0.00 0.00 65 1021.1
20210804181544 76 169 0.0 3.0 0.00 0.00 0.00 68 1021.1
20210804180034 76 169 1.0 3.0 0.00 0.00 0.00 66 1021.2
20210804174601 75 169 3.0 6.0 0.00 0.00 0.00 66 1021.0
20210804173019 75 211 0.0 4.0 0.00 0.00 0.00 64 1021.1
20210804171531 75 323 0.0 3.0 0.00 0.00 0.00 67 1021.1
20210804170007 74 321 0.0 1.0 0.00 0.00 0.00 71 1021.1
20210804164516 73 320 0.0 3.0 0.00 0.00 0.00 69 1021.2
20210804163002 73 320 0.0 2.0 0.00 0.00 0.00 73 1021.3
20210804161737 72 320 0.0 2.0 0.00 0.00 0.00 72 1021.6
20210804160128 72 318 0.0 2.0 0.00 0.00 0.00 79 1021.4
20210804154618 71 318 1.0 4.0 0.00 0.00 0.00 77 1021.5
20210804153101 70 319 0.0 0.0 0.00 0.00 0.00 80 1021.5
20210804151557 69 320 0.0 0.0 0.00 0.00 0.00 80 1021.6
20210804150128 68 320 0.0 0.0 0.00 0.00 0.00 79 1021.7
20210804144631 68 320 0.0 0.0 0.00 0.00 0.00 81 1021.7
20210804143052 67 319 0.0 3.0 0.00 0.00 0.00 83 1021.6
20210804141608 66 313 0.0 2.0 0.00 0.00 0.00 85 1021.4
20210804140043 65 313 0.0 1.0 0.00 0.00 0.00 87 1021.4
20210804134531 64 313 0.0 0.0 0.00 0.00 0.00 89 1021.3
20210804133035 63 313 0.0 0.0 0.00 0.00 0.00 92 1021.4
20210804131538 62 313 0.0 2.0 0.00 0.00 0.00 94 1021.4
20210804130019 61 313 0.0 0.0 0.00 0.00 0.00 96 1021.4
20210804124523 59 313 0.0 0.0 0.00 0.00 0.00 97 1021.3
20210804123047 59 313 0.0 0.0 0.00 0.00 0.00 97 1021.2
20210804121509 58 313 0.0 0.0 0.00 0.00 0.00 98 1021.1
20210804120006 57 313 0.0 0.0 0.00 0.00 0.00 98 1021.0
20210804114508 57 313 0.0 0.0 0.00 0.00 0.00 98 1020.8
20210804113114 56 313 0.0 0.0 0.00 0.00 0.00 97 1020.7
20210804111639 56 313 0.0 0.0 0.00 0.00 0.00 98 1020.6
20210804110120 55 313 0.0 0.0 0.00 0.00 0.00 97 1020.7
20210804104639 55 313 0.0 1.0 0.00 0.00 0.00 97 1020.6
20210804103112 54 184 0.0 0.0 0.00 0.00 0.00 97 1020.4
20210804101641 54 184 0.0 0.0 0.00 0.00 0.00 97 1020.2
20210804100117 54 184 0.0 0.0 0.00 0.00 0.00 97 1020.1
20210804094603 54 184 0.0 0.0 0.00 0.00 0.00 97 1019.9
20210804093142 54 184 0.0 0.0 0.00 0.00 0.00 97 1019.8
20210804091606 55 184 0.0 0.0 0.00 0.00 0.00 97 1019.8
20210804090101 55 184 0.0 0.0 0.00 0.00 0.00 97 1019.8
20210804084543 55 184 0.0 0.0 0.00 0.00 0.00 97 1019.6
20210804083126 55 184 0.0 0.0 0.00 0.00 0.00 97 1019.3
20210804081549 55 184 0.0 0.0 0.00 0.00 0.00 97 1019.4
20210804080038 55 184 0.0 0.0 0.00 0.00 0.00 97 1019.3
20210804074604 55 184 0.0 0.0 0.00 0.00 0.00 96 1019.1
20210804073049 56 184 0.0 0.0 0.00 0.00 0.00 96 1019.4
20210804071544 56 184 0.0 0.0 0.00 0.00 0.00 96 1019.3
20210804070040 56 184 0.0 0.0 0.00 0.00 0.00 96 1019.4
20210804064607 56 184 0.0 0.0 0.00 0.00 0.00 96 1019.4
20210804063037 57 184 0.0 0.0 0.00 0.00 0.00 96 1019.4
20210804061540 57 184 0.0 0.0 0.00 0.00 0.00 96 1019.2
20210804060049 57 184 0.0 0.0 0.00 0.00 0.00 96 1019.2
20210804054534 57 184 0.0 0.0 0.00 0.00 0.00 96 1019.1
20210804053034 57 184 0.0 0.0 0.00 0.00 0.00 96 1019.1
20210804051604 58 184 0.0 0.0 0.00 0.00 0.00 96 1019.2
20210804050050 58 184 0.0 0.0 0.00 0.00 0.00 96 1019.3
20210804044520 58 184 0.0 0.0 0.00 0.00 0.00 95 1019.2
20210804043052 59 184 0.0 0.0 0.00 0.00 0.00 96 1019.3
20210804041508 59 184 0.0 0.0 0.00 0.00 0.00 95 1019.4
20210804040004 59 184 0.0 0.0 0.00 0.00 0.00 95 1019.2
20210804034503 60 184 0.0 0.0 0.00 0.00 0.00 95 1019.2
20210804033005 60 184 0.0 0.0 0.00 0.00 0.00 95 1019.1
20210804031504 60 184 0.0 0.0 0.00 0.00 0.00 95 1019.3
20210804030027 61 184 0.0 0.0 0.00 0.00 0.00 95 1019.3
20210804024501 61 184 0.0 1.0 0.00 0.00 0.00 94 1019.2
20210804023001 62 184 0.0 0.0 0.00 0.00 0.00 94 1019.2
20210804021713 62 184 0.0 0.0 0.00 0.00 0.00 94 1019.2
20210804020407 62 184 0.0 0.0 0.00 0.00 0.00 93 1019.3